Hourly Weather Ludhiana

Today, 18 May, Tuesday

Time Temperature Precipitation Wind Pressure Humidity
00:00 +35°C° 0 mm 2 mps 732 mmHg 22%
01:00 +34°C° 0 mm 2 mps 731 mmHg 24%
02:00 +32°C° 0 mm 2 mps 731 mmHg 25%
03:00 +32°C° 0 mm 2 mps 731 mmHg 29%
04:00 +33°C° 0 mm 3 mps 731 mmHg 33%
05:00 +31°C° 0 mm 3 mps 731 mmHg 38%
06:00 +33°C° 0 mm 3 mps 732 mmHg 36%
07:00 +35°C° 0 mm 4 mps 732 mmHg 35%
08:00 +37°C° 0 mm 5 mps 732 mmHg 34%
09:00 +38°C° 0 mm 4 mps 732 mmHg 29%
10:00 +41°C° 0 mm 4 mps 732 mmHg 25%
11:00 +42°C° 0 mm 4 mps 732 mmHg 21%
12:00 +42°C° 0 mm 3 mps 732 mmHg 19%
13:00 +43°C° 0 mm 3 mps 731 mmHg 17%
14:00 +43°C° 0 mm 3 mps 731 mmHg 15%
15:00 +41°C° 0 mm 5 mps 731 mmHg 23%
16:00 +38°C° 0 mm 8 mps 731 mmHg 30%
17:00 +36°C° 0 mm 10 mps 730 mmHg 37%
18:00 +34°C° 0 mm 8 mps 731 mmHg 38%
19:00 +34°C° 0 mm 6 mps 732 mmHg 40%
20:00 +33°C° 0 mm 4 mps 733 mmHg 41%
21:00 +33°C° 0 mm 3 mps 733 mmHg 42%
22:00 +31°C° 0 mm 2 mps 733 mmHg 43%
23:00 +31°C° 0 mm 1 mps 733 mmHg 44%

Tomorrow, 19 May, Wednesday

Time Temperature Precipitation Wind Pressure Humidity
00:00 +31°C° 0 mm 1 mps 732 mmHg 45%
01:00 +30°C° 0 mm 1 mps 732 mmHg 47%
02:00 +30°C° 0 mm 2 mps 732 mmHg 49%
03:00 +30°C° 0 mm 1 mps 732 mmHg 50%
04:00 +30°C° 0 mm 1 mps 731 mmHg 50%
05:00 +29°C° 0 mm 1 mps 731 mmHg 50%
06:00 +30°C° 0 mm 1 mps 732 mmHg 47%
07:00 +31°C° 0 mm 2 mps 732 mmHg 44%
08:00 +32°C° 0 mm 2 mps 733 mmHg 40%
09:00 +34°C° 0 mm 3 mps 732 mmHg 38%
10:00 +34°C° 0 mm 3 mps 732 mmHg 36%
11:00 +35°C° 0 mm 4 mps 732 mmHg 34%
12:00 +34°C° 0 mm 5 mps 732 mmHg 39%
13:00 +32°C° 0 mm 5 mps 732 mmHg 43%
14:00 +30°C° 0 mm 6 mps 732 mmHg 48%
15:00 +29°C° 0.1 mm 6 mps 731 mmHg 53%
16:00 +28°C° 0.1 mm 6 mps 731 mmHg 58%
17:00 +27°C° 0.1 mm 5 mps 731 mmHg 63%
18:00 +26°C° 0 mm 5 mps 731 mmHg 65%
19:00 +26°C° 0 mm 4 mps 731 mmHg 67%
20:00 +25°C° 0 mm 4 mps 731 mmHg 69%
21:00 +25°C° 0.1 mm 4 mps 731 mmHg 70%
22:00 +25°C° 0.1 mm 4 mps 731 mmHg 71%
23:00 +25°C° 0.1 mm 4 mps 732 mmHg 71%

Day after tomorrow, 20 May, Thursday

Time Temperature Precipitation Wind Pressure Humidity
00:00 +23°C° 0.3 mm 4 mps 731 mmHg 75%
01:00 +23°C° 0.3 mm 4 mps 730 mmHg 79%
02:00 +22°C° 0.3 mm 5 mps 730 mmHg 82%
03:00 +22°C° 0 mm 4 mps 730 mmHg 81%
04:00 +22°C° 0 mm 3 mps 730 mmHg 79%
05:00 +24°C° 0 mm 2 mps 730 mmHg 78%
06:00 +24°C° 0 mm 2 mps 730 mmHg 75%
07:00 +25°C° 0 mm 2 mps 731 mmHg 72%
08:00 +25°C° 0 mm 2 mps 731 mmHg 70%
09:00 +26°C° 0 mm 3 mps 732 mmHg 66%
10:00 +27°C° 0 mm 3 mps 732 mmHg 62%
11:00 +28°C° 0 mm 3 mps 732 mmHg 58%
12:00 +29°C° 0 mm 3 mps 732 mmHg 54%
13:00 +30°C° 0 mm 3 mps 732 mmHg 51%
14:00 +31°C° 0 mm 3 mps 732 mmHg 47%
15:00 +31°C° 0 mm 3 mps 731 mmHg 44%
16:00 +31°C° 0 mm 3 mps 731 mmHg 42%
17:00 +33°C° 0 mm 3 mps 730 mmHg 40%
18:00 +31°C° 0 mm 3 mps 731 mmHg 44%
19:00 +29°C° 0 mm 3 mps 731 mmHg 48%
20:00 +28°C° 0 mm 3 mps 732 mmHg 53%
21:00 +27°C° 0 mm 3 mps 732 mmHg 57%
22:00 +26°C° 0 mm 3 mps 732 mmHg 60%
23:00 +25°C° 0 mm 3 mps 732 mmHg 64%

21 May, Friday

Time Temperature Precipitation Wind Pressure Humidity
00:00 +25°C° 0.5 mm 3 mps 732 mmHg 68%
01:00 +24°C° 0.5 mm 2 mps 732 mmHg 71%
02:00 +23°C° 0.5 mm 1 mps 732 mmHg 75%
03:00 +23°C° 0.4 mm 2 mps 732 mmHg 75%
04:00 +23°C° 0.4 mm 2 mps 732 mmHg 74%
05:00 +23°C° 0.4 mm 2 mps 732 mmHg 74%
06:00 +25°C° 0.1 mm 2 mps 732 mmHg 65%
07:00 +27°C° 0.1 mm 2 mps 732 mmHg 55%
08:00 +29°C° 0.1 mm 2 mps 733 mmHg 46%
09:00 +30°C° 0.6 mm 4 mps 733 mmHg 45%
10:00 +30°C° 0.6 mm 5 mps 733 mmHg 45%
11:00 +32°C° 0.6 mm 6 mps 734 mmHg 44%
12:00 +33°C° 0.4 mm 6 mps 733 mmHg 39%
13:00 +34°C° 0.4 mm 5 mps 733 mmHg 35%
14:00 +35°C° 0.4 mm 4 mps 732 mmHg 30%
15:00 +36°C° 0.1 mm 3 mps 732 mmHg 28%
16:00 +36°C° 0.1 mm 2 mps 731 mmHg 27%
17:00 +36°C° 0.1 mm 1 mps 731 mmHg 25%
18:00 +36°C° 0.2 mm 2 mps 731 mmHg 28%
19:00 +34°C° 0.2 mm 2 mps 731 mmHg 32%
20:00 +32°C° 0.2 mm 2 mps 731 mmHg 35%
21:00 +31°C° 0.5 mm 3 mps 731 mmHg 42%
22:00 +29°C° 0.5 mm 3 mps 731 mmHg 49%
23:00 +28°C° 0.5 mm 4 mps 731 mmHg 56%

22 May, Saturday

Time Temperature Precipitation Wind Pressure Humidity
00:00 +28°C° 1.4 mm 4 mps 731 mmHg 56%
01:00 +28°C° 1.4 mm 4 mps 731 mmHg 55%
02:00 +28°C° 1.4 mm 4 mps 730 mmHg 54%
03:00 +28°C° 0.3 mm 3 mps 730 mmHg 52%
04:00 +28°C° 0.3 mm 2 mps 730 mmHg 51%
05:00 +28°C° 0.3 mm 2 mps 730 mmHg 49%
06:00 +29°C° 0.1 mm 2 mps 731 mmHg 44%
07:00 +31°C° 0.1 mm 2 mps 731 mmHg 40%
08:00 +32°C° 0.1 mm 2 mps 732 mmHg 36%
09:00 +35°C° 0 mm 2 mps 732 mmHg 33%
10:00 +36°C° 0 mm 1 mps 732 mmHg 29%
11:00 +37°C° 0 mm 1 mps 732 mmHg 26%
12:00 +39°C° 0 mm 1 mps 731 mmHg 25%
13:00 +40°C° 0 mm 1 mps 731 mmHg 24%
14:00 +41°C° 0 mm 1 mps 730 mmHg 23%
15:00 +41°C° 0 mm 1 mps 730 mmHg 21%
16:00 +41°C° 0 mm 2 mps 729 mmHg 20%
17:00 +41°C° 0 mm 2 mps 728 mmHg 18%
18:00 +39°C° 0 mm 2 mps 729 mmHg 21%
19:00 +38°C° 0 mm 2 mps 729 mmHg 23%
20:00 +37°C° 0 mm 2 mps 729 mmHg 26%
21:00 +35°C° 0 mm 4 mps 730 mmHg 30%
22:00 +33°C° 0 mm 6 mps 730 mmHg 35%
23:00 +31°C° 0 mm 8 mps 731 mmHg 40%

23 May, Sunday

Time Temperature Precipitation Wind Pressure Humidity
00:00 +30°C° 0 mm 6 mps 730 mmHg 40%
01:00 +30°C° 0 mm 5 mps 730 mmHg 39%
02:00 +30°C° 0 mm 4 mps 730 mmHg 39%
03:00 +30°C° 0.2 mm 3 mps 730 mmHg 41%
04:00 +29°C° 0.2 mm 3 mps 731 mmHg 43%
05:00 +29°C° 0.2 mm 3 mps 731 mmHg 45%
06:00 +30°C° 0 mm 3 mps 731 mmHg 42%
07:00 +32°C° 0 mm 4 mps 732 mmHg 39%
08:00 +33°C° 0 mm 4 mps 732 mmHg 36%
09:00 +34°C° 0 mm 3 mps 732 mmHg 33%
10:00 +34°C° 0 mm 2 mps 732 mmHg 31%
11:00 +35°C° 0 mm 2 mps 732 mmHg 28%
12:00 +35°C° 0 mm 3 mps 732 mmHg 27%
13:00 +36°C° 0 mm 4 mps 732 mmHg 25%
14:00 +38°C° 0 mm 6 mps 732 mmHg 24%
15:00 +36°C° 0 mm 5 mps 731 mmHg 24%
16:00 +36°C° 0 mm 5 mps 731 mmHg 24%
17:00 +36°C° 0 mm 4 mps 731 mmHg 25%
18:00 +35°C° 0 mm 3 mps 731 mmHg 29%
19:00 +33°C° 0 mm 3 mps 731 mmHg 33%
20:00 +31°C° 0 mm 2 mps 731 mmHg 38%
21:00 +30°C° 0 mm 2 mps 731 mmHg 39%
22:00 +30°C° 0 mm 2 mps 731 mmHg 41%
23:00 +29°C° 0 mm 1 mps 731 mmHg 42%
Show more

We Need Your Consent

Meteoprog and our Service Providers may store and access personal data such as cookies, device identifiers or other similar technologies on your device and process such data to personalise content and ads, as well as provide social media features and to analyse the traffic.

  • Store and/or access information on your device

    Cookies, device identifiers or other information can be stored or accessed on your device for the purposes indicated above.

  • Personalised ads and content, ad and content measurement, audience insights, and products development

    Ads and content can be personalised based on a profile. More data can be added to better personalise ads and content. Ad and content performance can be measured. Insights about the audience who saw the ads and content can be derived. Such data can be used to develop or improve user’s experience, systems and software.

By clicking ‘I Agree’ you will allow the use of indicated cookies, device identifiers, web beacons or other similar technologies. Your settings can be changed in the browser on your device.

For certain purposes, legitimate interests may be relied on, rather than consent. You can read more about this in our Privacy and Cookie Policy.